IT9IRS-1 Weather Reports


Display with metric or nautical units.
time (UTC)temp
F
wind
direction
speed
MPH
gust
MPH
rain 1hr
in
rain 24hr
in
rain mn
in
humidity
%
barometer
mb
20260831112004 93 273 15.0 18.0 0.00 0.00 0.00 59 1012.3
20260831111717 93 273 15.0 19.0 0.00 0.00 0.00 59 1012.3
20260831111003 93 270 16.0 19.0 0.00 0.00 0.00 59 1012.3
20260831110504 93 272 15.0 19.0 0.00 0.00 0.00 60 1012.3
20260831110004 93 277 15.0 21.0 0.00 0.00 0.00 60 1012.3
20260831105504 92 277 15.0 21.0 0.00 0.00 0.00 61 1012.3
20260831105005 93 275 14.0 23.0 0.00 0.00 0.00 60 1012.3
20260831104504 93 274 14.0 23.0 0.00 0.00 0.00 60 1012.3
20260831104004 93 280 14.0 20.0 0.00 0.00 0.00 60 1012.3
20260831103716 93 280 13.0 15.0 0.00 0.00 0.00 61 1012.3
20260831103004 92 273 13.0 17.0 0.00 0.00 0.00 60 1012.3
20260831102716 92 280 13.0 17.0 0.00 0.00 0.00 60 1012.3
20260831102004 93 283 12.0 18.0 0.00 0.00 0.00 60 1012.3
20260831101503 92 276 14.0 20.0 0.00 0.00 0.00 61 1012.3
20260831101004 92 289 13.0 20.0 0.00 0.00 0.00 60 1012.3
20260831100503 92 291 13.0 18.0 0.00 0.00 0.00 60 1012.3
20260831100003 92 286 12.0 18.0 0.00 0.00 0.00 60 1012.3
20260831095503 92 279 12.0 18.0 0.00 0.00 0.00 59 1012.3
20260831095003 91 281 12.0 18.0 0.00 0.00 0.00 61 1012.3
20260831094503 92 283 12.0 15.0 0.00 0.00 0.00 62 1012.3
20260831094003 92 279 11.0 16.0 0.00 0.00 0.00 67 1012.3
20260831093503 91 274 10.0 16.0 0.00 0.00 0.00 70 1012.3
20260831093005 91 296 10.0 14.0 0.00 0.00 0.00 72 1012.3
20260831092717 91 300 11.0 14.0 0.00 0.00 0.00 73 1012.3
20260831092003 91 283 10.0 17.0 0.00 0.00 0.00 75 1012.3
20260831091504 91 282 12.0 17.0 0.00 0.00 0.00 77 1012.3
20260831091003 90 287 11.0 15.0 0.00 0.00 0.00 77 1012.3
20260831090505 90 285 10.0 15.0 0.00 0.00 0.00 77 1012.3
20260831090003 91 286 9.0 14.0 0.00 0.00 0.00 79 1012.3
20260831085504 91 283 9.0 14.0 0.00 0.00 0.00 79 1012.3
20260831085004 91 301 9.0 13.0 0.00 0.00 0.00 80 1012.3
20260831084504 91 315 7.0 12.0 0.00 0.00 0.00 80 1012.3
20260831084004 90 307 8.0 10.0 0.00 0.00 0.00 81 1012.3
20260831083505 90 311 9.0 12.0 0.00 0.00 0.00 82 1012.3
20260831083004 90 305 9.0 12.0 0.00 0.00 0.00 83 1012.3
20260831082718 89 303 8.0 12.0 0.00 0.00 0.00 84 1012.3
20260831082005 89 315 7.0 11.0 0.00 0.00 0.00 84 1012.3
20260831081504 89 316 7.0 11.0 0.00 0.00 0.00 86 1012.3
20260831081004 88 317 7.0 11.0 0.00 0.00 0.00 86 1012.3
20260831080505 88 313 8.0 11.0 0.00 0.00 0.00 87 1012.3
20260831080218 87 314 10.0 14.0 0.00 0.00 0.00 88 1012.3
20260831075505 87 312 9.0 14.0 0.00 0.00 0.00 88 1012.3
20260831075004 87 309 8.0 14.0 0.00 0.00 0.00 89 1012.3
20260831074504 87 320 9.0 14.0 0.00 0.00 0.00 90 1012.3
20260831074215 86 323 9.0 15.0 0.00 0.00 0.00 90 1012.3
20260831073504 85 323 11.0 15.0 0.00 0.00 0.00 92 1012.3
20260831073004 85 313 11.0 15.0 0.00 0.00 0.00 92 1012.3
20260831072504 85 317 10.0 13.0 0.00 0.00 0.00 93 1012.3
20260831072004 85 323 10.0 13.0 0.00 0.00 0.00 95 1012.3
20260831071504 84 327 11.0 14.0 0.00 0.00 0.00 95 1012.3
20260831071004 84 328 11.0 14.0 0.00 0.00 0.00 95 1012.3
20260831070504 84 308 12.0 18.0 0.00 0.00 0.00 95 1012.3
20260831070004 83 312 12.0 18.0 0.00 0.00 0.00 95 1012.3
20260831065504 83 316 11.0 14.0 0.00 0.00 0.00 95 1012.3
20260831065004 83 301 11.0 14.0 0.00 0.00 0.00 95 1012.3
20260831064504 83 311 12.0 15.0 0.00 0.00 0.00 95 1012.3
20260831064003 82 317 12.0 15.0 0.00 0.00 0.00 95 1012.3
20260831063504 82 309 13.0 15.0 0.00 0.00 0.00 95 1012.3
20260831063003 82 305 11.0 15.0 0.00 0.00 0.00 95 1012.3
20260831062504 82 315 10.0 15.0 0.00 0.00 0.00 95 1012.3
20260831062217 82 318 9.0 15.0 0.00 0.00 0.00 95 1012.3
20260831061504 81 316 8.0 12.0 0.00 0.00 0.00 95 1012.3
20260831061004 81 318 9.0 12.0 0.00 0.00 0.00 95 1012.3
20260831060503 80 323 7.0 10.0 0.00 0.00 0.00 95 1012.3
20260831060004 80 328 7.0 8.0 0.00 0.00 0.00 95 1012.3
20260831055717 80 319 6.0 8.0 0.00 0.00 0.00 95 1012.3
20260831055003 79 310 5.0 7.0 0.00 0.00 0.00 95 1012.3
20260831054504 79 324 4.0 5.0 0.00 0.00 0.00 95 1012.3
20260831054005 79 324 3.0 5.0 0.00 0.00 0.00 95 1012.3
20260831053503 79 319 3.0 5.0 0.00 0.00 0.00 95 1012.3
20260831053003 79 315 3.0 5.0 0.00 0.00 0.00 95 1012.3
20260831052715 79 315 3.0 4.0 0.00 0.00 0.00 95 1012.3
20260831052004 79 304 4.0 6.0 0.00 0.00 0.00 95 1011.3
20260831051504 78 304 5.0 7.0 0.00 0.00 0.00 95 1011.3
20260831051003 78 305 5.0 7.0 0.00 0.00 0.00 95 1011.3
20260831050503 78 309 5.0 6.0 0.00 0.00 0.00 95 1011.3
20260831050003 78 298 5.0 5.0 0.00 0.00 0.00 95 1011.3
20260831045504 78 298 4.0 5.0 0.00 0.00 0.00 95 1011.3
20260831045003 78 289 4.0 6.0 0.00 0.00 0.00 95 1011.3
20260831044503 78 275 5.0 6.0 0.00 0.00 0.00 95 1011.3
20260831044003 78 289 5.0 5.0 0.00 0.00 0.00 95 1011.3
20260831043714 78 302 5.0 5.0 0.00 0.00 0.00 95 1011.3
20260831043004 78 313 5.0 6.0 0.00 0.00 0.00 95 1011.3
20260831042504 78 310 5.0 5.0 0.00 0.00 0.00 95 1011.3
20260831042004 78 312 5.0 7.0 0.00 0.00 0.00 95 1011.3
20260831041716 77 312 5.0 7.0 0.00 0.00 0.00 95 1011.3
20260831041004 77 307 6.0 8.0 0.00 0.00 0.00 95 1011.3
20260831040504 77 300 7.0 8.0 0.00 0.00 0.00 95 1011.3
20260831040005 77 305 7.0 8.0 0.00 0.00 0.00 95 1011.3
20260831035505 77 307 6.0 8.0 0.00 0.00 0.00 95 1011.3
20260831035004 77 302 6.0 8.0 0.00 0.00 0.00 96 1010.3
20260831034714 77 303 5.0 7.0 0.00 0.00 0.00 96 1010.3
20260831034004 77 297 5.0 5.0 0.00 0.00 0.00 96 1010.3
20260831033504 77 288 4.0 5.0 0.00 0.00 0.00 96 1010.3
20260831033004 77 302 3.0 5.0 0.00 0.00 0.00 96 1010.3
20260831032716 77 301 3.0 4.0 0.00 0.00 0.00 96 1010.3
20260831032004 77 308 3.0 5.0 0.00 0.00 0.00 96 1010.3
20260831031504 77 307 4.0 5.0 0.00 0.00 0.00 96 1010.3
20260831031004 77 315 3.0 4.0 0.00 0.00 0.00 96 1010.3
20260831030504 77 315 3.0 4.0 0.00 0.00 0.00 96 1010.3
20260831030004 77 315 3.0 5.0 0.00 0.00 0.00 95 1010.3
20260831025714 77 315 3.0 5.0 0.00 0.00 0.00 95 1010.3
20260831025004 77 309 5.0 6.0 0.00 0.00 0.00 95 1010.3
20260831024504 77 300 5.0 6.0 0.00 0.00 0.00 95 1010.3
20260831024004 77 308 5.0 6.0 0.00 0.00 0.00 95 1010.3
20260831023504 77 312 4.0 5.0 0.00 0.00 0.00 95 1010.3
20260831023004 78 293 5.0 7.0 0.00 0.00 0.00 95 1010.3
20260831022504 78 285 4.0 7.0 0.00 0.00 0.00 95 1010.3
20260831022003 78 297 4.0 5.0 0.00 0.00 0.00 95 1010.3
20260831021504 78 294 5.0 5.0 0.00 0.00 0.00 95 1010.3
20260831021004 78 284 4.0 5.0 0.00 0.00 0.00 95 1010.3
20260831020504 78 299 4.0 5.0 0.00 0.00 0.00 95 1010.3
20260831020004 78 310 4.0 5.0 0.00 0.00 0.00 95 1010.3
20260831015504 78 305 4.0 6.0 0.00 0.00 0.00 95 1010.3
20260831015004 78 287 5.0 6.0 0.00 0.00 0.00 95 1010.3
20260831014504 78 270 5.0 5.0 0.00 0.00 0.00 95 1010.3
20260831014004 78 270 5.0 5.0 0.00 0.00 0.00 95 1010.3
20260831013504 78 270 5.0 5.0 0.00 0.00 0.00 95 1011.3
20260831013003 78 270 4.0 5.0 0.00 0.00 0.00 95 1011.3
20260831012503 78 270 4.0 5.0 0.00 0.00 0.00 95 1011.3
20260831012215 78 270 4.0 5.0 0.00 0.00 0.00 95 1011.3
20260831011504 78 270 2.0 4.0 0.00 0.00 0.00 95 1011.3
20260831011004 78 270 2.0 3.0 0.00 0.00 0.00 95 1011.3
20260831010504 78 270 1.0 2.0 0.00 0.00 0.00 95 1011.3
20260831010217 78 270 1.0 4.0 0.00 0.00 0.00 95 1011.3
20260831005503 78 310 2.0 4.0 0.00 0.00 0.00 94 1011.3
20260831005003 79 360 2.0 4.0 0.00 0.00 0.00 94 1011.3
20260831004503 79 4 2.0 4.0 0.00 0.00 0.00 94 1011.3
20260831004005 79 14 3.0 4.0 0.00 0.00 0.00 94 1011.3
20260831003503 79 24 2.0 4.0 0.00 0.00 0.00 94 1011.3
20260831003003 79 15 3.0 4.0 0.00 0.00 0.00 94 1011.3
20260831002503 79 21 3.0 4.0 0.00 0.00 0.00 94 1011.3
20260831002216 79 26 3.0 4.0 0.00 0.00 0.00 94 1011.3
20260831001503 79 34 4.0 6.0 0.00 0.00 0.00 94 1012.3
20260831001003 79 19 4.0 5.0 0.00 0.00 0.00 94 1012.3
20260831000503 79 6 4.0 5.0 0.00 0.00 0.00 93 1012.3
20260831000213 79 9 4.0 5.0 0.00 0.00 0.00 93 1012.3
20260830235504 80 13 4.0 5.0 0.00 0.00 0.00 93 1012.3
20260830235214 80 13 4.0 5.0 0.00 0.00 0.00 93 1012.3
20260830234717 80 5 3.0 5.0 0.00 0.00 0.00 93 1013.3
20260830234004 80 22 3.0 5.0 0.00 0.00 0.00 93 1013.3
20260830233504 80 31 2.0 5.0 0.00 0.00 0.00 92 1013.3
20260830233004 81 23 1.0 4.0 0.00 0.00 0.00 92 1013.3
20260830232504 81 43 2.0 6.0 0.00 0.00 0.00 92 1013.3
20260830232004 81 44 2.0 6.0 0.00 0.00 0.00 92 1013.3
20260830231504 81 25 2.0 4.0 0.00 0.00 0.00 92 1013.3
20260830231004 81 21 2.0 4.0 0.00 0.00 0.00 92 1013.3
20260830230504 81 343 2.0 5.0 0.00 0.00 0.00 92 1013.3
20260830230004 81 309 3.0 5.0 0.00 0.00 0.00 92 1013.3
20260830225716 81 300 4.0 7.0 0.00 0.00 0.00 92 1013.3
20260830225004 81 313 5.0 7.0 0.00 0.00 0.00 91 1013.3
20260830224504 82 325 5.0 11.0 0.00 0.00 0.00 91 1013.3
20260830224004 82 313 6.0 11.0 0.00 0.00 0.00 91 1013.3
20260830223504 82 305 7.0 9.0 0.00 0.00 0.00 91 1013.3
20260830223004 82 305 7.0 9.0 0.00 0.00 0.00 91 1013.3
20260830222504 82 301 7.0 9.0 0.00 0.00 0.00 91 1013.3
20260830222004 82 301 7.0 9.0 0.00 0.00 0.00 91 1013.3
20260830221504 82 310 8.0 12.0 0.00 0.00 0.00 91 1013.3
20260830221005 82 318 9.0 12.0 0.00 0.00 0.00 91 1013.3
20260830220504 82 308 10.0 15.0 0.00 0.00 0.00 91 1014.3
20260830220214 82 308 10.0 15.0 0.00 0.00 0.00 91 1014.3
20260830215504 82 309 8.0 11.0 0.00 0.00 0.00 91 1014.3
20260830215004 82 314 9.0 12.0 0.00 0.00 0.00 91 1014.3
20260830214504 82 293 10.0 12.0 0.00 0.00 0.00 91 1014.3
20260830214216 82 285 9.0 12.0 0.00 0.00 0.00 91 1014.3
20260830213505 82 283 8.0 11.0 0.00 0.00 0.00 90 1014.3
20260830213004 81 279 8.0 11.0 0.00 0.00 0.00 90 1014.3
20260830212504 81 278 7.0 9.0 0.00 0.00 0.00 89 1014.3
20260830212004 81 297 5.0 9.0 0.00 0.00 0.00 89 1013.3
20260830211504 81 314 3.0 5.0 0.00 0.00 0.00 89 1013.3
20260830211003 81 320 4.0 5.0 0.00 0.00 0.00 89 1013.3
20260830210503 81 323 4.0 5.0 0.00 0.00 0.00 88 1013.3
20260830210004 81 338 3.0 4.0 0.00 0.00 0.00 88 1013.3
20260830205503 81 13 2.0 5.0 0.00 0.00 0.00 88 1013.3
20260830205003 82 349 3.0 5.0 0.00 0.00 0.00 88 1012.3
20260830204503 82 322 4.0 5.0 0.00 0.00 0.00 88 1012.3
20260830204003 82 315 4.0 5.0 0.00 0.00 0.00 88 1012.3
20260830203504 82 301 4.0 5.0 0.00 0.00 0.00 88 1012.3
20260830203003 82 302 4.0 8.0 0.00 0.00 0.00 88 1012.3
20260830202503 82 291 6.0 9.0 0.00 0.00 0.00 88 1012.3
20260830202003 82 297 7.0 9.0 0.00 0.00 0.00 87 1012.3
20260830201504 82 304 6.0 9.0 0.00 0.00 0.00 87 1012.3
20260830201003 82 294 6.0 8.0 0.00 0.00 0.00 87 1012.3
20260830200504 82 295 6.0 8.0 0.00 0.00 0.00 87 1012.3
20260830200003 82 306 5.0 8.0 0.00 0.00 0.00 87 1012.3
20260830195503 82 311 6.0 7.0 0.00 0.00 0.00 87 1012.3
20260830195003 82 306 5.0 7.0 0.00 0.00 0.00 87 1012.3
20260830194503 83 309 5.0 9.0 0.00 0.00 0.00 87 1012.3
20260830194004 83 303 5.0 9.0 0.00 0.00 0.00 87 1012.3
20260830193503 83 309 5.0 6.0 0.00 0.00 0.00 87 1012.3
20260830193003 83 313 5.0 6.0 0.00 0.00 0.00 86 1012.3
20260830192503 83 306 5.0 7.0 0.00 0.00 0.00 86 1012.3
20260830192214 83 314 5.0 7.0 0.00 0.00 0.00 86 1012.3
20260830191717 83 305 5.0 7.0 0.00 0.00 0.00 86 1012.3
20260830191004 83 303 5.0 7.0 0.00 0.00 0.00 86 1012.3
20260830190504 83 309 6.0 7.0 0.00 0.00 0.00 85 1012.3
20260830190005 83 300 6.0 8.0 0.00 0.00 0.00 85 1012.3
20260830185714 83 302 6.0 8.0 0.00 0.00 0.00 85 1012.3
20260830185004 83 305 5.0 8.0 0.00 0.00 0.00 85 1011.3
20260830184505 83 305 5.0 6.0 0.00 0.00 0.00 85 1011.3
20260830184004 83 297 5.0 6.0 0.00 0.00 0.00 84 1011.3
20260830183504 84 289 5.0 7.0 0.00 0.00 0.00 84 1011.3
20260830183004 84 300 5.0 7.0 0.00 0.00 0.00 83 1011.3
20260830182504 84 288 5.0 7.0 0.00 0.00 0.00 83 1011.3
20260830182005 84 274 5.0 7.0 0.00 0.00 0.00 82 1011.3
20260830181504 84 279 5.0 7.0 0.00 0.00 0.00 81 1011.3
20260830181004 84 284 5.0 7.0 0.00 0.00 0.00 81 1011.3
20260830180504 84 284 5.0 7.0 0.00 0.00 0.00 81 1011.3
20260830180004 84 279 6.0 7.0 0.00 0.00 0.00 80 1011.3
20260830175714 84 275 7.0 10.0 0.00 0.00 0.00 80 1011.3
20260830175004 84 285 8.0 11.0 0.00 0.00 0.00 79 1011.3
20260830174504 85 288 8.0 11.0 0.00 0.00 0.00 78 1011.3
20260830174213 85 289 8.0 11.0 0.00 0.00 0.00 78 1011.3
20260830173504 85 280 8.0 11.0 0.00 0.00 0.00 78 1011.3
20260830173004 85 279 9.0 11.0 0.00 0.00 0.00 77 1011.3
20260830172504 85 299 9.0 14.0 0.00 0.00 0.00 77 1011.3
20260830172215 86 299 9.0 14.0 0.00 0.00 0.00 76 1011.3
20260830171504 86 289 10.0 12.0 0.00 0.00 0.00 76 1011.3
20260830171216 86 285 10.0 12.0 0.00 0.00 0.00 75 1011.3
20260830170714 86 292 10.0 12.0 0.00 0.00 0.00 75 1011.3
20260830165503 87 298 9.0 15.0 0.00 0.00 0.00 74 1011.3
20260830165004 87 302 9.0 14.0 0.00 0.00 0.00 74 1011.3
20260830164503 87 304 9.0 14.0 0.00 0.00 0.00 74 1011.3
20260830164003 87 298 11.0 17.0 0.00 0.00 0.00 73 1011.3
20260830163503 87 294 11.0 17.0 0.00 0.00 0.00 73 1011.3
20260830163003 88 291 9.0 13.0 0.00 0.00 0.00 73 1011.3
20260830162503 88 302 9.0 11.0 0.00 0.00 0.00 72 1011.3
20260830162005 88 296 10.0 16.0 0.00 0.00 0.00 71 1011.3
20260830161503 88 300 13.0 18.0 0.00 0.00 0.00 72 1011.3
20260830161004 88 310 14.0 18.0 0.00 0.00 0.00 71 1011.3
20260830160503 88 297 14.0 18.0 0.00 0.00 0.00 71 1011.3
20260830160003 88 287 11.0 14.0 0.00 0.00 0.00 71 1011.3
20260830155504 89 280 11.0 14.0 0.00 0.00 0.00 71 1011.3
20260830155003 89 283 11.0 19.0 0.00 0.00 0.00 71 1011.3
20260830154503 89 288 11.0 19.0 0.00 0.00 0.00 71 1011.3
20260830134003 92 291 13.0 17.0 0.00 0.00 0.00 67 1012.3
20260830133503 91 278 14.0 21.0 0.00 0.00 0.00 69 1012.3
20260830133003 91 270 15.0 21.0 0.00 0.00 0.00 69 1012.3
20260830132503 91 270 15.0 23.0 0.00 0.00 0.00 69 1012.3
20260830132003 90 272 14.0 23.0 0.00 0.00 0.00 70 1012.3
20260830131503 91 272 14.0 23.0 0.00 0.00 0.00 71 1012.3
20260830131003 91 271 16.0 23.0 0.00 0.00 0.00 70 1012.3
20260830130503 91 285 13.0 23.0 0.00 0.00 0.00 70 1012.3
20260830130216 92 285 13.0 18.0 0.00 0.00 0.00 69 1012.3
20260830125503 91 270 15.0 20.0 0.00 0.00 0.00 71 1012.3
20260830125003 91 278 15.0 21.0 0.00 0.00 0.00 69 1012.3
20260830124503 91 295 15.0 21.0 0.00 0.00 0.00 68 1012.3
20260830124003 92 294 14.0 21.0 0.00 0.00 0.00 67 1012.3
20260830123503 92 279 15.0 21.0 0.00 0.00 0.00 67 1012.3
20260830123003 91 272 17.0 21.0 0.00 0.00 0.00 68 1012.3
20260830122503 92 287 15.0 22.0 0.00 0.00 0.00 67 1012.3
20260830122005 92 290 13.0 22.0 0.00 0.00 0.00 65 1012.3
20260830121503 92 273 14.0 18.0 0.00 0.00 0.00 66 1012.3
20260830121003 92 276 13.0 18.0 0.00 0.00 0.00 63 1012.3
20260830120503 92 288 12.0 17.0 0.00 0.00 0.00 64 1012.3
20260830120003 92 286 13.0 20.0 0.00 0.00 0.00 64 1012.3
20260830115504 92 278 14.0 20.0 0.00 0.00 0.00 65 1012.3
20260830115004 92 278 11.0 17.0 0.00 0.00 0.00 65 1012.3
20260830114504 92 278 12.0 17.0 0.00 0.00 0.00 65 1012.3
20260830114004 92 277 12.0 17.0 0.00 0.00 0.00 67 1012.3
20260830113504 92 276 11.0 15.0 0.00 0.00 0.00 67 1012.3
20260830113004 92 279 12.0 15.0 0.00 0.00 0.00 68 1012.3
20260830112717 92 277 13.0 17.0 0.00 0.00 0.00 68 1012.3